Change the Weather History Date:

Tuesday, November 20, 2012

  Actual Average Record
Temperature  
Mean Temperature 35 °F -  
Max Temperature 45 °F 35 °F 59 °F (2001)
Min Temperature 25 °F 21 °F 18 °F (2014)
Degree Days  
Heating Degree Days 30    
Moisture  
Dew Point 31 °F    
Average Humidity 84    
Maximum Humidity 100    
Minimum Humidity 57    
Precipitation  
Precipitation 0.00 in 0.17 in - ()
Sea Level Pressure  
Sea Level Pressure 30.20 in    
Wind  
Wind Speed 6 mph ()    
Max Wind Speed 10 mph    
Max Gust Speed -    
Visibility 14.9 miles    
Events      
Averages and records for this station are not official NWS values.
T = Trace of Precipitation, MM = Missing Value Source: Averaged Metar Reports

Daily Weather History Graph

Daily Weather History Graph

Search for Another Location

Airport or City:

Trip Planner

Search our weather history database for the weather conditions in past years. The results will help you decide how hot, cold, wet, or windy it might be!

Date:

Astronomy

Nov. 20, 2012 Rise Set
Actual Time 7:21 AM AST 4:34 PM AST
Civil Twilight 6:48 AM AST 5:07 PM AST
Nautical Twilight 6:11 AM AST 5:44 PM AST
Astronomical Twilight 5:35 AM AST 6:20 PM AST
Moon 12:41 PM AST (11/20) No Moon Set
Length of Visible Light 10h 19m
Length of Day
9h 13m
Waxing Crescent, 51% of the Moon is Illuminated
Nov 20
Waxing Crescent
Nov 28
Full
Dec 6
Last Quarter
Dec 13
New
Dec 20
First Quarter

Hourly Weather History & Observations

Time (AST) Temp. Windchill Dew Point Humidity Pressure Visibility Wind Dir Wind Speed Gust Speed Precip Events Conditions
12:00 AM 32.0 °F 25.6 °F 28.4 °F 87% 30.25 in 15.0 mi SW 6.9 mph - N/A   Clear
1:00 AM 33.8 °F 27.0 °F 28.4 °F 81% 30.23 in 15.0 mi WSW 8.1 mph - N/A   Clear
2:00 AM 32 °F - 28 °F 79% 30.21 in 15 mi West 6.9 mph - -  
2:00 AM 32.0 °F 25.6 °F 28.4 °F 87% 30.21 in 15.0 mi West 6.9 mph - N/A   Clear
3:00 AM 32.0 °F 26.4 °F 28.4 °F 87% 30.19 in 15.0 mi WSW 5.8 mph - N/A   Clear
4:00 AM 32.0 °F 24.8 °F 28.4 °F 87% 30.19 in 15.0 mi WSW 8.1 mph - N/A   Clear
5:00 AM 32.0 °F 25.6 °F 28.4 °F 87% 30.18 in 15.0 mi WSW 6.9 mph - N/A   Clear
6:00 AM 32.0 °F 26.4 °F 28.4 °F 87% 30.18 in 15.0 mi WSW 5.8 mph - N/A   Clear
7:00 AM 28.4 °F 24.6 °F 24.8 °F 86% 30.19 in 15.0 mi West 3.5 mph - N/A   Clear
8:00 AM 29 °F - 27 °F 88% 30.19 in 15 mi WNW 4.6 mph - -   Scattered Clouds
8:00 AM 28.4 °F 22.2 °F 26.6 °F 93% 30.19 in 15.0 mi WNW 5.8 mph - N/A   Partly Cloudy
9:00 AM 35.6 °F 31.7 °F 28.4 °F 75% 30.19 in 15.0 mi WNW 4.6 mph - N/A   Partly Cloudy
10:00 AM 39.2 °F 35.9 °F 30.2 °F 70% 30.19 in 15.0 mi WNW 4.6 mph - N/A   Partly Cloudy
11:00 AM 41.0 °F 37.1 °F 33.8 °F 76% 30.19 in 15.0 mi NNW 5.8 mph - N/A   Partly Cloudy
12:00 PM 44.6 °F 40.2 °F 35.6 °F 71% 30.17 in 15.0 mi North 8.1 mph - N/A   Partly Cloudy
1:00 PM 44.6 °F 40.2 °F 33.8 °F 66% 30.16 in 15.0 mi NNW 8.1 mph - N/A   Scattered Clouds
2:00 PM 44 °F - 34 °F 57% 30.17 in 15 mi NNW 6.9 mph - -   Scattered Clouds
2:00 PM 44.6 °F 40.2 °F 33.8 °F 66% 30.17 in 15.0 mi NNW 8.1 mph - N/A   Partly Cloudy
3:00 PM 42.8 °F 37.0 °F 35.6 °F 76% 30.17 in 15.0 mi NNE 10.4 mph - N/A   Scattered Clouds
4:00 PM 42.8 °F 38.0 °F 35.6 °F 76% 30.19 in 15.0 mi NNE 8.1 mph - N/A   Scattered Clouds
5:00 PM 37.4 °F 33.8 °F 33.8 °F 87% 30.19 in 15.0 mi NE 4.6 mph - N/A   Scattered Clouds
6:00 PM 37.4 °F 32.8 °F 33.8 °F 87% 30.19 in 15.0 mi ENE 5.8 mph - N/A   Partly Cloudy
6:35 PM 33.8 °F 28.6 °F 32.0 °F 93% 30.21 in 15.0 mi NE 5.8 mph - N/A   Partly Cloudy
7:00 PM 33.8 °F 29.6 °F 33.8 °F 100% 30.21 in 12.0 mi North 4.6 mph - N/A   Clear
8:00 PM 31 °F - 30 °F 95% 30.23 in 15 mi NE 6.9 mph - -  
8:00 PM 30.2 °F 22.6 °F 30.2 °F 100% 30.23 in 15.0 mi NE 8.1 mph - N/A   Clear
9:00 PM 32.0 °F 25.6 °F 32.0 °F 100% 30.24 in 15.0 mi NNE 6.9 mph - N/A   Clear
10:00 PM 33.8 °F 27.0 °F 32.0 °F 93% 30.24 in 15.0 mi NE 8.1 mph - N/A   Clear
11:00 PM 35.6 °F 29.2 °F 33.8 °F 93% 30.25 in 15.0 mi NE 8.1 mph - N/A   Clear